OBJECT A

基本信息
目录编号:
58502
目录名称:
OBJECT A
国际标识:
2023-189A
轨道中心:
EARTH
物体状态:
在轨
发射日期:
2023-12-04 UTC
国别:
中国 (CN)
轨道信息
数据来源: 国际轨道数据 AOE轨道数据
星历时间: 2026-09-02T23:08:20+0800 2026-09-02T18:00:00+0800
半长轴: 6842.375km 6842.385km
偏心率: 0.0010342 0.0010428
轨道倾角: 97.437° 97.438°
近地点辐角: 352.704° 353.144°
升交点赤经: 264.381° 264.167°
平近点角: 7.405° 265.351°
近地点: 457.161km 457.112km
远地点: 471.315km 471.384km
周期: 93.879分钟 93.880分钟
每日圈数: 15.338838 15.338805
详细信息
发射场:
JSC
轨道高度:
LEO
数据来源:
AOE Working Group
参考系:
TEME
时间系统:
UTC
历元类型:
SGP4
2D轨道图
3D轨道图
轨道高度分析图
轨道倾角分析图
轨道综合分析图
查看轨道综合分析图